When you browse on this site, cookies collect data to enhance your experience and personalize the content and advertising you see.
Visit our Privacy Policy to learn more. By continuing to use the site, you agree to this use of cookies and data.

Hourly Weather Konakry

Today, 28 September, Monday

Time Temperature Precipitation Wind Pressure Humidity
00:00 +27°C° 0 mm 1 mps 756 mmHg 85%
01:00 +27°C° 0 mm 1 mps 755 mmHg 86%
02:00 +27°C° 0 mm 1 mps 755 mmHg 87%
03:00 +26°C° 0 mm 1 mps 755 mmHg 87%
04:00 +24°C° 0 mm 0 mps 755 mmHg 88%
05:00 +24°C° 0 mm 0 mps 755 mmHg 88%
06:00 +27°C° 0 mm 1 mps 755 mmHg 86%
07:00 +27°C° 0 mm 1 mps 756 mmHg 85%
08:00 +28°C° 0 mm 1 mps 756 mmHg 83%
09:00 +29°C° 0 mm 1 mps 756 mmHg 78%
10:00 +30°C° 0 mm 1 mps 756 mmHg 72%
11:00 +32°C° 0 mm 1 mps 756 mmHg 67%
12:00 +31°C° 0.2 mm 2 mps 755 mmHg 68%
13:00 +31°C° 0.2 mm 2 mps 755 mmHg 69%
14:00 +31°C° 0.2 mm 3 mps 754 mmHg 70%
15:00 +30°C° 0.3 mm 3 mps 754 mmHg 73%
16:00 +29°C° 0.3 mm 3 mps 754 mmHg 76%
17:00 +29°C° 0.3 mm 3 mps 754 mmHg 79%
18:00 +28°C° 0 mm 3 mps 755 mmHg 81%
19:00 +28°C° 0 mm 3 mps 755 mmHg 82%
20:00 +28°C° 0 mm 2 mps 756 mmHg 84%
21:00 +27°C° 0 mm 2 mps 756 mmHg 84%
22:00 +27°C° 0 mm 2 mps 756 mmHg 85%
23:00 +27°C° 0 mm 2 mps 756 mmHg 85%

Tomorrow, 29 September, Tuesday

Time Temperature Precipitation Wind Pressure Humidity
00:00 +27°C° 0 mm 2 mps 756 mmHg 85%
01:00 +27°C° 0 mm 2 mps 756 mmHg 86%
02:00 +27°C° 0 mm 1 mps 755 mmHg 86%
03:00 +27°C° 0 mm 2 mps 755 mmHg 86%
04:00 +27°C° 0 mm 2 mps 755 mmHg 87%
05:00 +27°C° 0 mm 2 mps 755 mmHg 87%
06:00 +27°C° 0 mm 2 mps 756 mmHg 84%
07:00 +28°C° 0 mm 2 mps 756 mmHg 82%
08:00 +29°C° 0 mm 2 mps 757 mmHg 79%
09:00 +30°C° 0 mm 2 mps 756 mmHg 75%
10:00 +31°C° 0 mm 2 mps 756 mmHg 71%
11:00 +32°C° 0 mm 2 mps 756 mmHg 67%
12:00 +33°C° 0.1 mm 3 mps 755 mmHg 68%
13:00 +31°C° 0.1 mm 3 mps 755 mmHg 70%
14:00 +32°C° 0.1 mm 4 mps 754 mmHg 71%
15:00 +32°C° 0.1 mm 4 mps 754 mmHg 74%
16:00 +30°C° 0.1 mm 4 mps 754 mmHg 76%
17:00 +30°C° 0.1 mm 3 mps 754 mmHg 79%
18:00 +29°C° 0 mm 3 mps 755 mmHg 81%
19:00 +29°C° 0 mm 3 mps 755 mmHg 84%
20:00 +28°C° 0 mm 3 mps 756 mmHg 87%
21:00 +28°C° 1 mm 3 mps 756 mmHg 88%
22:00 +28°C° 1 mm 3 mps 756 mmHg 89%
23:00 +28°C° 1 mm 3 mps 756 mmHg 89%

Day after tomorrow, 30 September, Wednesday

Time Temperature Precipitation Wind Pressure Humidity
00:00 +27°C° 1.5 mm 3 mps 756 mmHg 89%
01:00 +27°C° 1.5 mm 2 mps 755 mmHg 89%
02:00 +27°C° 1.5 mm 2 mps 755 mmHg 89%
03:00 +27°C° 0.7 mm 2 mps 755 mmHg 89%
04:00 +27°C° 0.7 mm 2 mps 755 mmHg 89%
05:00 +27°C° 0.7 mm 2 mps 755 mmHg 88%
06:00 +28°C° 0.7 mm 2 mps 755 mmHg 86%
07:00 +28°C° 0.7 mm 2 mps 756 mmHg 84%
08:00 +29°C° 0.7 mm 2 mps 756 mmHg 82%
09:00 +29°C° 0.7 mm 2 mps 756 mmHg 78%
10:00 +30°C° 0.7 mm 2 mps 756 mmHg 74%
11:00 +30°C° 0.7 mm 3 mps 756 mmHg 71%
12:00 +31°C° 0 mm 3 mps 755 mmHg 68%
13:00 +31°C° 0 mm 3 mps 755 mmHg 66%
14:00 +33°C° 0 mm 3 mps 754 mmHg 64%
15:00 +31°C° 0.3 mm 3 mps 754 mmHg 68%
16:00 +30°C° 0.3 mm 3 mps 754 mmHg 72%
17:00 +29°C° 0.3 mm 3 mps 754 mmHg 76%
18:00 +29°C° 0.2 mm 2 mps 755 mmHg 79%
19:00 +28°C° 0.2 mm 2 mps 755 mmHg 81%
20:00 +28°C° 0.2 mm 1 mps 756 mmHg 83%
21:00 +28°C° 0.1 mm 1 mps 756 mmHg 84%
22:00 +28°C° 0.1 mm 1 mps 756 mmHg 84%
23:00 +27°C° 0.1 mm 1 mps 756 mmHg 84%

1 October, Thursday

Time Temperature Precipitation Wind Pressure Humidity
00:00 +27°C° 0 mm 1 mps 756 mmHg 85%
01:00 +27°C° 0 mm 1 mps 756 mmHg 86%
02:00 +27°C° 0 mm 1 mps 755 mmHg 87%
03:00 +27°C° 0 mm 1 mps 755 mmHg 88%
04:00 +27°C° 0 mm 1 mps 755 mmHg 88%
05:00 +27°C° 0 mm 2 mps 755 mmHg 88%
06:00 +27°C° 0 mm 2 mps 755 mmHg 86%
07:00 +28°C° 0 mm 2 mps 755 mmHg 84%
08:00 +29°C° 0 mm 3 mps 755 mmHg 81%
09:00 +29°C° 0 mm 3 mps 756 mmHg 78%
10:00 +30°C° 0 mm 3 mps 756 mmHg 76%
11:00 +30°C° 0 mm 3 mps 756 mmHg 73%
12:00 +31°C° 0.1 mm 3 mps 755 mmHg 72%
13:00 +32°C° 0.1 mm 4 mps 755 mmHg 72%
14:00 +32°C° 0.1 mm 4 mps 754 mmHg 71%
15:00 +30°C° 0 mm 4 mps 754 mmHg 74%
16:00 +30°C° 0 mm 4 mps 754 mmHg 77%
17:00 +29°C° 0 mm 4 mps 754 mmHg 80%
18:00 +29°C° 0 mm 4 mps 754 mmHg 82%
19:00 +28°C° 0 mm 3 mps 755 mmHg 84%
20:00 +28°C° 0 mm 3 mps 755 mmHg 86%
21:00 +28°C° 0 mm 3 mps 755 mmHg 87%
22:00 +27°C° 0 mm 2 mps 755 mmHg 87%
23:00 +27°C° 0 mm 2 mps 755 mmHg 88%

2 October, Friday

Time Temperature Precipitation Wind Pressure Humidity
00:00 +27°C° 0.1 mm 2 mps 755 mmHg 88%
01:00 +27°C° 0.1 mm 3 mps 754 mmHg 88%
02:00 +28°C° 0.1 mm 3 mps 754 mmHg 87%
03:00 +27°C° 0.1 mm 3 mps 754 mmHg 88%
04:00 +27°C° 0.1 mm 3 mps 754 mmHg 88%
05:00 +27°C° 0.1 mm 3 mps 754 mmHg 88%
06:00 +28°C° 0.1 mm 3 mps 754 mmHg 86%
07:00 +29°C° 0.1 mm 3 mps 755 mmHg 84%
08:00 +29°C° 0.1 mm 4 mps 755 mmHg 81%
09:00 +30°C° 0.2 mm 4 mps 755 mmHg 80%
10:00 +30°C° 0.2 mm 4 mps 755 mmHg 78%
11:00 +30°C° 0.2 mm 4 mps 755 mmHg 76%
12:00 +32°C° 0.1 mm 4 mps 754 mmHg 74%
13:00 +32°C° 0.1 mm 5 mps 754 mmHg 72%
14:00 +32°C° 0.1 mm 5 mps 753 mmHg 70%
15:00 +32°C° 0.1 mm 5 mps 753 mmHg 73%
16:00 +30°C° 0.1 mm 5 mps 753 mmHg 76%
17:00 +30°C° 0.1 mm 5 mps 753 mmHg 79%
18:00 +29°C° 0.1 mm 4 mps 754 mmHg 81%
19:00 +29°C° 0.1 mm 4 mps 754 mmHg 84%
20:00 +28°C° 0.1 mm 3 mps 755 mmHg 86%
21:00 +28°C° 0.1 mm 3 mps 755 mmHg 86%
22:00 +28°C° 0.1 mm 3 mps 755 mmHg 86%
23:00 +28°C° 0.1 mm 3 mps 755 mmHg 87%

3 October, Saturday

Time Temperature Precipitation Wind Pressure Humidity
00:00 +28°C° 0.3 mm 3 mps 755 mmHg 87%
01:00 +28°C° 0.3 mm 4 mps 754 mmHg 88%
02:00 +27°C° 0.3 mm 4 mps 754 mmHg 88%
03:00 +27°C° 0.2 mm 4 mps 754 mmHg 88%
04:00 +27°C° 0.2 mm 4 mps 754 mmHg 88%
05:00 +27°C° 0.2 mm 4 mps 754 mmHg 88%
06:00 +28°C° 0.8 mm 4 mps 754 mmHg 85%
07:00 +29°C° 0.8 mm 4 mps 755 mmHg 82%
08:00 +29°C° 0.8 mm 4 mps 755 mmHg 79%
09:00 +30°C° 0.6 mm 4 mps 755 mmHg 76%
10:00 +30°C° 0.6 mm 4 mps 755 mmHg 73%
11:00 +32°C° 0.6 mm 4 mps 755 mmHg 70%
12:00 +32°C° 0.2 mm 4 mps 754 mmHg 70%
13:00 +32°C° 0.2 mm 5 mps 753 mmHg 70%
14:00 +32°C° 0.2 mm 5 mps 753 mmHg 69%
15:00 +30°C° 0.7 mm 5 mps 753 mmHg 74%
16:00 +30°C° 0.7 mm 5 mps 753 mmHg 78%
17:00 +29°C° 0.7 mm 4 mps 753 mmHg 82%
18:00 +29°C° 1.3 mm 4 mps 754 mmHg 84%
19:00 +28°C° 1.3 mm 4 mps 754 mmHg 85%
20:00 +28°C° 1.3 mm 3 mps 755 mmHg 86%
21:00 +28°C° 2.5 mm 3 mps 755 mmHg 86%
22:00 +28°C° 2.5 mm 3 mps 755 mmHg 86%
23:00 +27°C° 2.5 mm 3 mps 755 mmHg 86%
Show more